Vertical_Velocity
0 0 2 3 -2 -8 -10 -8 -3 0 2 4 5 5 5 6 10 10 7 1 1 1 1 -1 1 4 6 8 7 5 4 2 2 2 2 0 -1 -0 0 1 0 0 0 -0 -1 -2 -2 -2 -1 -0 0 1 0 -0 -0 -1 -1 -1 -1 -1 -1 -0 0 0 0 1 1 1 0
-0 0 2 3 0 -4 -8 -10 -8 -6 -4 -1 1 2 2 3 7 8 6 2 3 5 6 6 6 6 6 5 4 2 1 2 2 2 1 -1 -1 -1 -0 0 0 0 0 -0 -1 -2 -2 -3 -2 -1 0 1 1 1 -0 -1 -1 -1 -1 -1 -1 -0 0 0 -0 0 1 1 1
2 1 0 0 -0 -1 -2 -5 -7 -8 -8 -6 -3 -1 -0 -1 2 4 4 2 3 4 4 3 2 1 -0 -0 -1 -1 -1 -0 1 1 0 -1 -1 1 2 2 1 -0 -1 -1 -1 -2 -2 -3 -2 -1 0 1 1 1 0 -1 -0 -0 -0 -1 -1 -1 -0 -0 -0 0 1 0 0
3 3 2 1 3 2 -1 -4 -2 -2 -4 -6 -5 -2 -0 1 4 5 6 5 3 0 -2 -3 -2 -2 -1 -1 -1 -2 -3 -2 -2 -2 -3 -4 -3 -1 -0 -0 -2 -3 -3 -3 -2 -2 -2 -2 -2 -1 -0 1 0 0 -0 -0 0 0 0 -0 -1 -1 -1 -0 0 0 0 -0 0
4 5 5 5 6 4 -1 -5 -4 -2 -2 -4 -4 -0 4 10 13 12 9 6 3 -0 -3 -4 -2 -1 -0 1 0 -1 -2 -3 -3 -4 -4 -6 -6 -5 -4 -4 -4 -4 -4 -3 -2 -1 -1 -1 -2 -1 -0 0 0 0 0 0 -0 -0 -0 0 1 0 -0 -0 0 0 0 -0 -0
4 5 5 6 6 4 2 -1 -4 -6 -5 -3 -0 1 2 6 8 7 5 3 2 2 2 3 2 2 3 4 3 2 1 -0 -1 -1 -2 -3 -4 -4 -4 -5 -5 -4 -3 -2 -1 -0 0 0 -1 -1 -0 1 1 1 1 1 -0 -1 -1 -0 0 1 1 1 0 1 1 0 0
3 4 4 5 5 4 2 0 -0 -1 -1 0 2 0 -3 -5 -5 -4 -4 -2 3 8 12 13 10 8 6 6 4 3 2 2 1 0 -1 -2 -2 -2 -2 -2 -2 -2 -2 -1 -1 -0 0 0 -0 -1 -0 1 1 0 0 0 -1 -1 -2 -2 -1 0 1 1 1 1 1 1 1
2 3 3 3 4 4 3 1 2 4 5 5 4 2 -1 -5 -6 -6 -7 -6 -1 4 9 11 9 6 4 3 2 1 1 0 -0 -1 -2 -2 -2 -1 -1 -1 -0 -0 0 0 1 1 0 -0 -0 -0 -0 -0 -0 -0 -0 -0 -1 -2 -2 -2 -1 -0 1 1 1 2 2 1 1
-0 1 2 2 2 2 2 1 1 2 5 8 8 7 4 1 -1 -3 -4 -6 -7 -4 -0 3 2 1 0 -0 -1 -1 -1 -0 -1 -2 -3 -2 -1 -0 -0 1 1 2 2 2 2 2 1 1 0 0 0 0 -0 -1 -1 -0 -1 -2 -2 -1 -1 -0 0 0 1 2 2 2 1
-2 -0 1 1 0 0 0 1 -0 -1 -0 2 8 12 12 8 4 2 -1 -4 -5 -4 -2 -1 -0 0 1 -0 -1 -0 -0 -0 -1 -2 -2 -2 -0 0 1 1 2 2 2 2 2 2 2 1 1 1 1 1 0 -0 -1 -0 -1 -1 -2 -2 -0 0 0 -0 1 1 2 1 1
-2 -1 -0 0 -0 -1 -1 -1 -0 -0 -1 -2 2 8 13 13 11 9 7 4 1 0 -1 -1 2 3 2 -0 -0 -0 -0 -1 -2 -3 -2 -1 1 1 2 1 1 1 1 1 2 2 2 1 1 1 1 1 0 0 -0 -0 -0 -1 -1 -1 -0 -0 0 0 1 1 1 1 1
-2 -2 -2 -0 -0 -1 -2 -2 1 2 2 -1 -1 1 4 8 15 20 19 12 7 3 1 2 5 5 3 1 -0 -1 -1 -2 -4 -3 -1 0 1 2 2 1 1 1 1 1 2 2 2 1 0 0 0 -0 -0 -0 0 0 -0 -0 -1 -1 -0 0 1 1 2 2 1 1 1
-2 -2 -2 -1 -1 -1 -2 -2 2 4 4 0 -1 -1 0 1 14 23 25 15 7 4 3 6 8 8 5 2 -0 -1 -2 -4 -3 -2 -0 1 2 2 2 1 0 1 1 2 2 2 1 0 0 0 0 -1 -1 -1 -1 -1 -0 -0 -0 -0 0 1 1 2 2 2 1 -0 -0
-1 -1 -2 -1 -1 -1 -1 -1 2 4 5 2 0 1 2 4 11 18 19 11 4 1 2 6 10 9 6 2 -0 -2 -4 -4 -2 -1 0 1 1 2 1 0 1 1 2 2 1 1 1 1 0 1 0 -0 -1 -1 -1 -1 -1 -1 -0 -0 0 0 1 1 1 1 1 -0 -1
-1 -1 -1 -0 0 0 0 1 3 4 5 4 3 5 7 9 12 14 14 8 1 -1 1 7 10 9 6 1 -2 -4 -5 -3 -1 -0 -0 0 1 1 1 0 1 2 3 2 1 1 2 2 1 1 1 0 -0 -1 -2 -2 -1 -1 -1 -1 -0 -0 -0 0 1 1 1 0 1
-2 -1 -1 0 1 1 2 3 4 5 5 4 5 8 11 13 14 15 13 7 1 -0 3 8 10 8 4 -1 -4 -5 -4 -2 -1 -1 -0 1 2 2 2 1 2 2 2 2 1 1 2 3 2 2 2 1 -0 -1 -2 -2 -2 -2 -2 -1 -1 -1 -0 1 2 2 2 2 2
-2 -2 -1 -0 1 3 4 6 5 5 4 4 5 9 12 15 17 18 16 9 4 4 6 9 8 5 1 -3 -4 -4 -2 -2 -1 -0 1 4 5 4 2 2 2 2 2 1 0 1 2 2 3 3 3 3 1 -0 -1 -1 -1 -1 -1 -1 -0 0 1 3 4 4 4 3 2
-2 -2 -2 -1 1 4 6 7 6 4 3 3 6 8 12 14 18 20 19 14 10 9 9 8 5 2 0 -2 -3 -2 -1 -0 -0 1 4 7 7 5 2 2 2 2 1 0 0 0 1 1 1 2 3 2 2 1 -0 -1 -1 -1 -0 0 0 1 1 2 3 4 3 2 0
-1 -2 -2 -0 3 5 6 6 5 4 3 3 5 7 9 13 19 22 23 19 16 14 11 7 4 1 -0 -2 -2 -1 0 1 0 2 5 8 6 3 2 2 2 2 1 0 0 1 1 0 -0 0 1 1 1 1 1 0 -0 -0 0 0 -0 -0 -0 1 2 2 2 1 2
-0 -1 -0 2 5 7 7 6 5 4 4 3 4 5 7 10 16 20 22 20 18 16 13 8 4 1 -0 -1 -0 -0 0 0 2 4 6 6 4 1 0 2 2 2 1 1 0 0 0 -0 -1 -1 -0 0 0 0 0 0 1 1 1 1 1 0 0 1 2 2 2 2 3
0 0 1 3 6 7 6 4 4 4 4 3 5 6 7 9 13 16 17 16 17 16 14 9 4 1 -0 -0 0 0 0 2 5 5 4 2 1 0 -0 1 2 2 2 1 0 -0 -1 -1 -1 -1 -0 -0 -0 0 0 0 0 1 1 2 2 1 1 1 2 2 3 3 3
0 0 1 3 6 7 6 4 3 3 4 3 4 6 9 11 12 13 14 14 16 16 13 8 3 1 0 -0 1 3 4 7 8 5 2 -0 1 1 0 0 1 1 2 2 0 -0 -1 -1 -1 -1 -0 -0 -0 0 1 0 0 1 1 1 2 2 2 1 1 2 2 3 3
-0 -0 -0 1 5 7 7 6 5 4 4 4 4 5 7 9 10 11 13 15 16 16 13 8 5 4 3 2 4 7 9 10 7 3 -0 -0 1 1 0 -0 -0 -0 1 2 1 -0 -1 -2 -1 -1 -0 0 1 1 1 1 1 1 1 2 2 2 2 1 1 1 2 2 2
0 -0 -1 -1 1 4 5 6 6 6 5 5 4 4 5 6 6 8 10 13 14 14 13 11 10 9 8 7 8 9 10 9 5 2 -0 0 1 1 -0 -1 -2 -1 -0 2 2 1 -0 -1 -1 -1 -0 1 1 1 2 2 2 2 2 2 2 2 1 1 1 1 1 2 2
1 1 0 -0 0 2 3 5 5 5 4 4 4 4 4 3 4 5 7 8 10 12 13 13 12 10 9 8 8 8 8 7 4 2 1 1 1 -0 -1 -3 -3 -2 -0 3 3 2 0 -1 -1 -0 -0 1 1 2 2 2 2 2 2 2 2 2 1 1 1 1 1 1 1
3 2 2 2 2 3 4 5 4 4 4 4 3 3 2 2 3 4 6 7 8 10 11 12 9 7 6 7 8 8 8 6 4 2 1 1 0 -1 -2 -3 -3 -2 -0 2 3 2 1 -0 -0 0 1 1 2 2 2 2 3 3 3 3 2 2 1 1 1 1 1 1 2
4 4 4 3 4 4 5 5 6 5 5 5 4 3 3 3 4 5 6 6 6 8 9 9 7 6 7 10 10 10 8 5 3 2 1 1 0 -1 -3 -3 -2 -1 -0 2 2 2 1 1 0 1 1 2 2 2 2 2 3 3 3 3 3 2 2 1 1 1 1 1 2
4 4 4 4 4 4 4 4 6 6 6 6 6 5 5 6 6 6 6 6 7 8 8 7 6 8 11 13 11 9 6 3 2 1 1 2 1 -1 -3 -3 -2 -2 -0 2 2 2 2 1 1 1 1 2 2 2 2 3 3 3 4 4 3 2 2 1 1 1 1 1 1
4 4 4 4 4 3 3 4 5 5 6 7 7 7 7 7 6 6 6 7 9 9 8 5 6 9 12 11 8 5 3 2 1 2 2 3 1 -1 -2 -2 -2 -2 -1 1 2 2 2 1 1 1 2 2 2 2 3 3 3 3 3 3 3 2 2 1 1 1 0 0 0
3 4 5 5 4 4 3 3 4 4 5 6 7 7 6 5 4 4 5 8 9 8 6 4 6 8 8 6 4 4 3 2 3 4 4 3 1 -1 -3 -3 -3 -3 -2 0 2 3 2 2 1 1 2 2 2 2 3 3 3 3 3 3 3 2 2 1 1 1 0 -0 -0
3 4 4 5 5 5 4 4 4 4 5 5 5 5 4 3 2 2 4 8 8 6 5 4 5 5 5 5 5 5 5 4 4 5 4 3 1 -0 -1 -3 -4 -5 -4 -1 2 3 3 2 1 1 1 2 2 2 2 2 2 2 2 2 2 1 1 1 1 0 0 -0 -1
2 3 4 5 5 5 5 5 5 5 5 4 4 4 4 3 2 3 5 7 7 6 5 5 5 6 6 7 8 7 7 6 5 4 2 1 1 0 -1 -2 -4 -5 -5 -2 2 3 4 2 1 1 0 0 1 1 1 2 2 2 2 2 2 1 1 0 0 0 -0 -0 -0
2 3 3 4 4 4 5 5 5 6 5 4 4 4 4 4 4 5 6 7 7 7 6 5 6 6 7 8 8 8 6 5 4 2 1 -0 -0 -1 -1 -2 -4 -5 -5 -3 0 2 3 2 1 1 0 -0 0 1 2 2 2 2 2 2 1 1 1 -0 -0 -0 -0 -0 -0
2 2 3 3 3 4 4 4 5 5 5 4 4 5 5 5 5 6 6 6 6 6 6 5 6 6 6 6 6 6 5 4 3 2 0 -1 -1 -1 -2 -2 -3 -4 -4 -4 -2 -0 1 1 1 1 0 0 1 1 2 3 3 2 2 1 1 1 1 -0 -0 -0 -0 0 1
2 2 2 3 3 4 4 4 5 5 5 4 5 5 5 5 5 5 5 5 6 6 6 5 5 5 5 5 4 4 4 3 2 1 0 -0 -1 -1 -1 -1 -2 -2 -3 -3 -3 -2 -1 -0 0 0 0 1 1 2 3 3 2 2 1 1 1 1 1 1 0 -0 0 1 2
1 1 2 2 3 4 4 5 5 5 5 4 4 5 5 5 5 5 5 5 5 5 5 4 4 4 4 4 3 3 2 2 1 1 1 -0 -1 -1 -1 -1 -0 -0 -1 -1 -2 -3 -2 -1 -0 -0 -0 0 1 2 3 3 1 1 0 1 1 2 3 2 1 1 1 1 1
2 1 1 2 3 4 4 5 5 5 5 5 5 5 5 5 5 4 4 4 4 4 3 3 3 3 3 2 2 2 1 1 1 0 0 -0 -0 -1 -1 -1 -0 0 1 -0 -1 -2 -2 -1 -1 -0 -0 0 1 1 1 1 1 0 0 1 1 2 3 3 2 2 2 1 1
2 2 2 1 2 3 4 4 5 5 6 6 6 6 5 5 4 3 3 2 2 2 2 2 2 1 1 1 1 1 1 0 0 -0 -0 -0 -0 -0 -1 -1 -0 1 1 1 -0 -1 -1 -1 -1 -0 -0 0 -0 0 0 1 0 0 0 1 1 2 2 2 2 2 2 2 1
2 2 2 2 2 2 3 4 4 5 6 6 6 5 4 4 3 2 2 1 1 1 1 1 1 1 1 1 1 0 0 0 -0 -0 -0 -0 -0 -0 -0 -1 -0 0 1 2 1 0 -0 -1 -1 -1 -1 -1 -0 -0 0 0 0 0 1 1 1 1 2 2 2 2 2 2 1
1 1 1 2 2 2 2 3 4 4 5 5 4 4 3 3 2 2 1 1 1 1 1 1 1 1 1 1 0 0 0 0 -0 -0 -0 -0 -0 0 0 -0 -0 1 2 2 1 0 -0 -0 -1 -2 -1 -1 -0 0 0 1 1 0 0 1 1 1 1 1 2 2 2 2 2
1 1 1 1 1 1 2 2 3 3 3 3 2 2 2 2 2 2 2 2 2 2 2 2 2 2 1 1 0 0 1 1 -0 -1 -1 -1 -0 0 0 0 1 1 2 3 2 1 0 -0 -2 -2 -2 -0 0 0 0 0 0 0 0 1 1 1 1 1 1 1 2 2 2
Height
2999 2998 2998 2998 2998 2997 2996 2996 2996 2997 2997 2997 2997 2997 2998 2999 2999 2999 2999 2999 2999 3000 3000 3000 3001 3001 3002 3002 3002 3002 3001 3001 3002 3002 3002 3001 3001 3001 3001 3001 3001 3001 3002 3002 3002 3003 3003 3003 3003 3004 3004 3004 3003 3003 3003 3003 3004 3004 3004 3004 3004 3004 3004 3005 3005 3006 3006 3006 3007
2996 2996 2995 2996 2995 2994 2993 2992 2992 2992 2992 2993 2993 2993 2994 2994 2995 2995 2995 2995 2996 2997 2997 2998 2998 2998 2999 2999 2999 2999 2999 2999 2999 2999 2999 2999 2998 2998 2999 2999 2999 2999 3000 3000 3000 3001 3001 3001 3001 3001 3001 3001 3001 3001 3001 3001 3001 3001 3001 3001 3001 3001 3002 3002 3002 3003 3003 3004 3004
2993 2992 2992 2992 2992 2992 2991 2990 2989 2989 2989 2989 2990 2990 2991 2991 2991 2991 2991 2992 2993 2994 2994 2994 2994 2995 2995 2996 2996 2996 2996 2996 2996 2996 2996 2996 2996 2996 2997 2997 2997 2997 2998 2998 2998 2998 2998 2998 2998 2998 2998 2998 2998 2998 2998 2998 2998 2998 2998 2998 2998 2999 2999 2999 3000 3000 3001 3001 3002
2989 2989 2989 2988 2989 2989 2988 2987 2987 2986 2986 2986 2987 2987 2988 2988 2989 2989 2989 2990 2990 2991 2991 2991 2992 2992 2993 2993 2993 2993 2993 2993 2993 2993 2993 2993 2994 2994 2994 2995 2995 2996 2996 2996 2997 2996 2996 2996 2995 2995 2995 2995 2995 2995 2995 2995 2995 2995 2996 2996 2996 2996 2996 2997 2997 2997 2998 2998 2999
2986 2986 2985 2985 2986 2986 2986 2985 2984 2983 2982 2982 2983 2984 2985 2986 2987 2987 2987 2987 2988 2988 2989 2989 2990 2990 2991 2991 2991 2991 2991 2991 2991 2991 2991 2991 2992 2992 2992 2992 2993 2993 2994 2994 2994 2994 2993 2993 2993 2992 2992 2992 2993 2993 2993 2992 2992 2992 2992 2993 2993 2993 2993 2994 2994 2994 2995 2995 2996
2982 2982 2982 2982 2982 2982 2982 2982 2982 2981 2980 2980 2980 2980 2981 2982 2983 2983 2983 2983 2984 2986 2987 2987 2987 2988 2988 2988 2988 2988 2988 2988 2989 2989 2989 2989 2989 2990 2990 2990 2991 2992 2992 2992 2992 2991 2991 2991 2990 2990 2990 2990 2990 2990 2990 2990 2990 2990 2990 2990 2991 2991 2991 2991 2991 2992 2992 2992 2993
2977 2977 2977 2978 2978 2978 2978 2979 2979 2979 2978 2978 2977 2977 2976 2976 2977 2977 2978 2979 2981 2983 2985 2985 2986 2986 2986 2986 2986 2986 2986 2986 2986 2986 2987 2987 2987 2987 2988 2988 2989 2989 2989 2989 2989 2989 2989 2988 2988 2987 2987 2988 2988 2988 2988 2988 2987 2987 2987 2987 2987 2988 2988 2988 2989 2989 2989 2990 2990
2973 2973 2973 2974 2974 2974 2974 2975 2975 2976 2976 2975 2975 2975 2974 2973 2973 2973 2973 2975 2977 2979 2981 2982 2982 2982 2982 2982 2983 2983 2983 2983 2984 2984 2984 2985 2985 2985 2986 2986 2987 2987 2987 2987 2987 2987 2987 2986 2986 2985 2985 2986 2986 2986 2986 2985 2985 2984 2984 2984 2985 2985 2985 2986 2986 2986 2987 2987 2987
2969 2969 2969 2969 2969 2970 2970 2970 2971 2972 2972 2972 2972 2972 2972 2972 2971 2971 2971 2971 2972 2974 2976 2977 2978 2979 2979 2979 2980 2980 2980 2981 2981 2981 2982 2982 2983 2983 2984 2984 2984 2984 2984 2984 2984 2984 2984 2984 2983 2983 2983 2983 2983 2983 2983 2982 2982 2982 2982 2982 2982 2982 2982 2983 2983 2983 2984 2984 2985
2965 2965 2965 2965 2965 2965 2966 2966 2967 2967 2967 2968 2968 2969 2969 2969 2969 2969 2969 2968 2969 2970 2972 2973 2974 2976 2976 2977 2977 2977 2977 2978 2978 2978 2979 2980 2980 2981 2981 2982 2982 2982 2982 2982 2982 2982 2981 2981 2981 2981 2981 2981 2981 2980 2980 2980 2979 2979 2979 2979 2979 2979 2980 2980 2980 2981 2981 2981 2982
2962 2961 2961 2961 2960 2961 2961 2962 2962 2963 2963 2964 2964 2965 2966 2966 2967 2967 2967 2967 2967 2967 2968 2970 2972 2972 2973 2974 2974 2975 2975 2975 2975 2976 2976 2977 2978 2978 2979 2979 2979 2979 2979 2979 2979 2979 2978 2978 2978 2978 2978 2978 2978 2978 2977 2977 2977 2977 2976 2977 2977 2977 2977 2977 2977 2977 2978 2978 2979
2958 2957 2957 2957 2956 2956 2957 2957 2958 2959 2959 2959 2960 2961 2962 2963 2964 2964 2964 2964 2964 2965 2966 2967 2968 2969 2970 2971 2971 2972 2972 2972 2972 2973 2974 2975 2975 2976 2976 2976 2976 2976 2976 2976 2976 2976 2975 2975 2975 2975 2975 2975 2975 2975 2975 2975 2974 2974 2974 2974 2974 2974 2974 2975 2975 2975 2975 2975 2976
2954 2954 2953 2953 2952 2952 2952 2953 2954 2955 2955 2956 2956 2957 2958 2959 2960 2961 2962 2962 2962 2962 2963 2964 2965 2967 2967 2968 2968 2968 2968 2968 2969 2970 2971 2972 2972 2973 2973 2973 2973 2973 2973 2973 2973 2973 2972 2972 2972 2972 2972 2972 2972 2972 2972 2972 2972 2972 2972 2971 2972 2972 2972 2972 2972 2972 2972 2972 2973
2951 2950 2950 2949 2949 2949 2949 2949 2950 2951 2952 2952 2952 2953 2954 2955 2956 2957 2957 2958 2958 2959 2960 2961 2962 2963 2965 2965 2965 2965 2965 2966 2967 2968 2969 2969 2970 2970 2970 2970 2970 2971 2971 2970 2970 2970 2970 2969 2969 2969 2969 2969 2969 2969 2969 2969 2969 2969 2969 2969 2969 2969 2969 2969 2969 2969 2969 2970 2970
2947 2947 2947 2946 2946 2945 2946 2946 2946 2947 2948 2949 2950 2950 2951 2951 2952 2952 2953 2953 2954 2955 2957 2958 2959 2960 2961 2962 2962 2962 2962 2963 2964 2965 2966 2967 2967 2967 2967 2967 2967 2968 2968 2967 2967 2967 2967 2967 2967 2967 2967 2967 2967 2966 2966 2966 2966 2966 2966 2966 2966 2966 2966 2966 2966 2966 2967 2967 2967
2944 2944 2943 2943 2942 2942 2943 2943 2943 2944 2945 2946 2947 2947 2947 2947 2947 2948 2949 2950 2951 2952 2954 2955 2956 2957 2957 2957 2958 2959 2960 2961 2962 2963 2963 2964 2964 2964 2964 2964 2965 2965 2965 2965 2965 2964 2964 2964 2964 2964 2964 2964 2963 2963 2963 2963 2963 2963 2963 2963 2963 2963 2963 2963 2964 2964 2964 2965 2965
2941 2941 2940 2940 2940 2940 2940 2941 2941 2942 2942 2943 2943 2944 2944 2944 2944 2945 2946 2947 2948 2949 2951 2952 2953 2953 2954 2954 2955 2956 2957 2958 2959 2960 2961 2961 2961 2962 2962 2962 2962 2962 2962 2962 2962 2962 2962 2962 2962 2962 2962 2961 2960 2960 2960 2960 2961 2961 2961 2961 2961 2961 2961 2961 2961 2962 2962 2962 2962
2939 2938 2937 2937 2937 2937 2937 2937 2938 2939 2940 2940 2941 2941 2941 2941 2942 2943 2943 2944 2945 2947 2948 2949 2949 2950 2951 2951 2952 2953 2954 2955 2956 2957 2957 2958 2959 2959 2959 2960 2960 2959 2959 2959 2959 2959 2959 2959 2959 2959 2959 2958 2957 2957 2957 2957 2957 2958 2958 2958 2958 2958 2958 2958 2959 2959 2959 2959 2960
2937 2936 2935 2935 2935 2935 2935 2935 2935 2936 2937 2938 2938 2938 2938 2939 2939 2940 2941 2942 2943 2944 2945 2946 2946 2947 2948 2949 2950 2951 2952 2952 2953 2954 2955 2956 2957 2957 2957 2957 2957 2957 2957 2956 2956 2956 2956 2956 2956 2956 2956 2955 2954 2954 2954 2954 2954 2955 2955 2955 2955 2955 2955 2956 2956 2956 2957 2957 2957
2935 2934 2933 2932 2932 2932 2932 2932 2933 2934 2935 2935 2936 2936 2936 2937 2937 2938 2939 2940 2941 2942 2943 2943 2944 2945 2946 2947 2948 2948 2949 2949 2950 2951 2953 2954 2955 2955 2954 2954 2954 2954 2954 2954 2954 2954 2953 2953 2953 2953 2952 2952 2951 2951 2951 2951 2951 2952 2952 2952 2952 2952 2953 2953 2953 2954 2954 2955 2955
2933 2932 2931 2931 2930 2930 2929 2930 2930 2931 2932 2933 2933 2934 2934 2935 2936 2937 2938 2939 2940 2941 2942 2942 2943 2943 2944 2945 2946 2946 2946 2947 2948 2950 2951 2952 2952 2952 2952 2952 2952 2952 2952 2952 2951 2951 2951 2950 2950 2950 2949 2949 2948 2948 2948 2948 2948 2948 2949 2949 2949 2950 2950 2951 2951 2952 2952 2952 2952
2931 2930 2930 2929 2928 2927 2927 2927 2928 2929 2930 2930 2931 2932 2932 2933 2935 2936 2937 2938 2939 2940 2940 2941 2941 2942 2943 2943 2943 2944 2944 2945 2946 2948 2949 2950 2950 2949 2949 2949 2949 2949 2949 2949 2949 2948 2948 2947 2947 2947 2946 2946 2945 2945 2945 2945 2945 2946 2946 2946 2947 2947 2948 2948 2948 2949 2949 2950 2950
2930 2929 2928 2927 2926 2926 2925 2925 2926 2926 2927 2928 2928 2929 2930 2931 2932 2933 2935 2936 2937 2937 2938 2939 2940 2940 2941 2941 2941 2942 2942 2943 2945 2946 2947 2947 2947 2947 2946 2946 2946 2947 2947 2947 2946 2945 2945 2944 2944 2943 2943 2943 2942 2942 2942 2942 2942 2943 2943 2944 2944 2945 2945 2945 2946 2946 2947 2947 2947
2928 2927 2926 2926 2925 2924 2924 2924 2924 2924 2925 2925 2926 2927 2928 2929 2930 2931 2932 2933 2934 2935 2936 2937 2938 2938 2939 2939 2939 2940 2941 2942 2943 2944 2944 2944 2944 2944 2943 2943 2943 2943 2944 2944 2943 2943 2942 2941 2941 2940 2940 2940 2940 2939 2939 2939 2940 2940 2941 2941 2942 2942 2942 2943 2943 2944 2944 2944 2945
2926 2925 2925 2924 2923 2923 2922 2922 2922 2922 2923 2923 2924 2925 2926 2927 2927 2928 2929 2930 2931 2932 2933 2934 2935 2936 2936 2937 2937 2938 2940 2940 2941 2941 2941 2941 2941 2941 2941 2941 2940 2941 2941 2941 2941 2940 2939 2939 2938 2937 2937 2937 2937 2937 2937 2937 2937 2937 2938 2939 2939 2940 2940 2940 2941 2941 2942 2942 2942
2925 2924 2923 2923 2922 2922 2922 2921 2921 2922 2922 2922 2923 2923 2924 2925 2925 2926 2927 2927 2928 2929 2931 2932 2932 2933 2934 2935 2936 2937 2937 2938 2938 2938 2939 2939 2938 2938 2938 2937 2937 2937 2938 2938 2938 2937 2937 2936 2936 2935 2935 2935 2934 2934 2934 2934 2935 2935 2936 2936 2937 2937 2937 2938 2938 2939 2939 2939 2940
2923 2922 2922 2921 2921 2921 2921 2921 2921 2921 2921 2922 2922 2922 2923 2923 2924 2924 2925 2926 2927 2927 2928 2929 2930 2930 2932 2932 2933 2934 2934 2935 2935 2936 2936 2936 2936 2935 2935 2935 2935 2935 2935 2935 2935 2935 2934 2934 2933 2933 2932 2932 2932 2932 2932 2932 2932 2933 2933 2934 2934 2935 2935 2936 2936 2936 2937 2937 2937
2922 2921 2920 2920 2920 2920 2920 2920 2920 2921 2921 2921 2922 2922 2922 2922 2923 2923 2923 2924 2925 2926 2926 2927 2927 2928 2929 2930 2930 2931 2932 2932 2932 2933 2933 2933 2933 2932 2932 2932 2932 2932 2932 2932 2932 2932 2932 2932 2931 2931 2930 2930 2930 2930 2930 2930 2930 2930 2931 2932 2932 2932 2933 2933 2933 2934 2934 2934 2935
2921 2920 2919 2919 2918 2918 2918 2919 2919 2920 2920 2920 2921 2921 2921 2921 2922 2922 2922 2923 2923 2924 2924 2924 2925 2925 2926 2927 2927 2928 2929 2930 2930 2930 2930 2930 2930 2930 2930 2929 2929 2929 2929 2929 2930 2930 2930 2929 2929 2929 2928 2928 2928 2928 2928 2928 2928 2928 2928 2929 2929 2930 2930 2931 2931 2931 2932 2932 2932
2920 2919 2918 2918 2917 2917 2917 2918 2918 2919 2919 2919 2919 2920 2920 2920 2920 2921 2921 2922 2922 2922 2922 2922 2922 2923 2924 2924 2925 2926 2927 2927 2927 2927 2927 2927 2927 2927 2927 2927 2926 2926 2926 2927 2927 2927 2927 2927 2927 2927 2926 2926 2926 2926 2926 2926 2926 2926 2926 2927 2927 2927 2927 2928 2928 2928 2929 2929 2930
2920 2919 2918 2917 2917 2917 2917 2917 2917 2917 2917 2918 2918 2918 2918 2919 2919 2919 2920 2920 2920 2921 2921 2920 2921 2921 2922 2922 2923 2923 2924 2924 2924 2925 2925 2925 2925 2925 2925 2924 2924 2923 2923 2924 2924 2925 2925 2925 2925 2925 2924 2924 2924 2924 2924 2924 2924 2924 2924 2924 2925 2925 2925 2925 2926 2926 2927 2927 2927
2920 2919 2918 2917 2917 2916 2916 2916 2916 2917 2917 2917 2917 2917 2917 2917 2918 2918 2918 2919 2919 2919 2919 2919 2919 2919 2919 2920 2920 2921 2921 2921 2922 2922 2922 2922 2923 2923 2922 2922 2921 2921 2921 2921 2922 2922 2923 2923 2923 2923 2922 2922 2922 2922 2922 2922 2922 2922 2922 2922 2922 2922 2923 2923 2923 2924 2924 2924 2925
2920 2919 2918 2917 2917 2916 2916 2916 2916 2916 2916 2916 2916 2916 2916 2916 2917 2917 2917 2917 2917 2917 2917 2917 2917 2917 2917 2918 2918 2918 2919 2919 2919 2920 2920 2920 2920 2920 2920 2920 2919 2918 2918 2918 2919 2920 2920 2921 2921 2921 2921 2920 2920 2920 2920 2920 2920 2920 2920 2920 2920 2920 2921 2921 2921 2922 2922 2922 2923
2921 2919 2918 2917 2917 2916 2916 2915 2915 2915 2915 2915 2915 2915 2915 2916 2916 2916 2916 2916 2916 2916 2916 2916 2916 2916 2916 2916 2916 2917 2917 2917 2917 2918 2918 2918 2918 2918 2918 2917 2917 2916 2916 2916 2916 2917 2917 2918 2919 2919 2919 2919 2919 2918 2918 2918 2918 2918 2918 2918 2918 2918 2918 2919 2919 2919 2920 2920 2921
2921 2920 2918 2917 2917 2916 2916 2915 2915 2915 2915 2915 2915 2915 2915 2915 2915 2915 2915 2915 2915 2915 2914 2914 2914 2914 2914 2914 2915 2915 2915 2916 2916 2917 2917 2917 2917 2916 2916 2916 2915 2915 2915 2914 2914 2914 2915 2916 2917 2917 2917 2917 2917 2917 2917 2916 2916 2916 2915 2916 2916 2916 2917 2917 2917 2917 2918 2918 2918
2921 2920 2919 2918 2917 2916 2916 2916 2915 2915 2915 2915 2914 2914 2914 2914 2914 2914 2914 2914 2913 2913 2913 2913 2913 2913 2913 2913 2913 2913 2914 2914 2915 2915 2915 2915 2915 2915 2914 2914 2914 2914 2913 2913 2912 2912 2912 2913 2914 2915 2915 2915 2915 2915 2914 2914 2913 2913 2913 2913 2914 2915 2915 2915 2915 2915 2916 2916 2916
2921 2920 2919 2918 2917 2917 2916 2916 2915 2915 2915 2915 2914 2914 2914 2914 2913 2913 2913 2913 2912 2912 2912 2912 2912 2912 2912 2912 2912 2912 2913 2913 2913 2913 2914 2913 2913 2913 2913 2913 2912 2912 2912 2912 2911 2911 2911 2911 2912 2912 2913 2913 2913 2912 2912 2912 2911 2911 2911 2911 2912 2912 2913 2913 2913 2913 2913 2913 2913
2921 2920 2919 2918 2917 2917 2916 2916 2916 2915 2915 2915 2914 2914 2914 2913 2913 2912 2912 2912 2912 2911 2911 2911 2910 2910 2910 2911 2911 2911 2912 2912 2912 2912 2912 2912 2912 2912 2911 2911 2911 2911 2911 2911 2910 2910 2909 2909 2910 2910 2911 2911 2910 2910 2910 2909 2909 2909 2909 2909 2910 2910 2910 2911 2911 2911 2911 2911 2911
2921 2920 2919 2918 2917 2917 2916 2916 2915 2915 2915 2914 2914 2914 2913 2913 2912 2912 2912 2911 2911 2910 2910 2910 2909 2909 2909 2910 2910 2910 2910 2911 2911 2911 2911 2911 2910 2910 2910 2909 2909 2909 2909 2909 2909 2909 2908 2908 2908 2908 2908 2908 2908 2908 2907 2907 2907 2907 2907 2907 2907 2907 2908 2908 2908 2908 2908 2909 2908
2921 2920 2919 2918 2917 2917 2916 2915 2915 2915 2914 2914 2913 2913 2913 2912 2912 2912 2911 2910 2910 2909 2909 2909 2909 2909 2909 2909 2909 2909 2909 2909 2909 2909 2909 2909 2908 2908 2908 2908 2908 2908 2908 2908 2908 2907 2907 2907 2906 2906 2906 2906 2906 2906 2905 2905 2905 2905 2905 2905 2905 2905 2905 2906 2906 2906 2906 2906 2906
2921 2920 2919 2918 2917 2916 2915 2915 2914 2914 2913 2913 2912 2912 2912 2912 2911 2911 2910 2910 2909 2909 2908 2908 2908 2908 2908 2907 2907 2907 2907 2907 2907 2907 2907 2907 2907 2906 2906 2906 2906 2907 2907 2907 2906 2906 2905 2905 2904 2904 2904 2904 2904 2904 2903 2903 2903 2903 2903 2903 2903 2903 2903 2903 2903 2903 2904 2904 2904